N223TW KOKC-KMEM

Flight info

Callsign N223TW
Flight time 1h 3m
Altitude 45000
Route TRUPR3 DRLER RZC BRBBQ3
Aircraft C750/M-SBDE3FGHRWXY/S

Departure

Time 2026-04-12 02:49
Airport OKC Will Rogers World Airport (KOKC)

Arrival

Time 2026-04-12 03:52
Airport Memphis International Airport (KMEM)
Time Latitude Longitude Altitude Speed Heading
2026-04-12 02:39 35.40035 -97.58490 1290 ft 0 kts 179°
2026-04-12 02:45 35.40029 -97.58493 1290 ft 3 kts 210°
2026-04-12 02:45 35.40029 -97.58512 1290 ft 5 kts 306°
2026-04-12 02:45 35.40076 -97.58520 1292 ft 10 kts 353°
2026-04-12 02:46 35.40167 -97.58537 1296 ft 12 kts 350°
2026-04-12 02:46 35.40216 -97.58622 1298 ft 13 kts 308°
2026-04-12 02:46 35.40332 -97.58627 1298 ft 21 kts
2026-04-12 02:46 35.40470 -97.58636 1299 ft 16 kts 342°
2026-04-12 02:47 35.40507 -97.58732 1298 ft 12 kts 269°
2026-04-12 02:47 35.40506 -97.58764 1298 ft 0 kts 270°
2026-04-12 02:47 35.40506 -97.58765 1298 ft 2 kts 270°
2026-04-12 02:48 35.40504 -97.58843 1298 ft 16 kts 269°
2026-04-12 02:48 35.40466 -97.58895 1297 ft 6 kts 179°
2026-04-12 02:48 35.40267 -97.58898 1297 ft 77 kts 180°
2026-04-12 02:48 35.39408 -97.58888 1292 ft 156 kts 179°
2026-04-12 02:49 35.38275 -97.58911 1901 ft 166 kts 178°
2026-04-12 02:49 35.37093 -97.58893 2668 ft 174 kts 184°
2026-04-12 02:49 35.35952 -97.59068 3919 ft 155 kts 186°
2026-04-12 02:49 35.34944 -97.59292 5065 ft 144 kts 187°
2026-04-12 02:50 35.33854 -97.58916 5124 ft 201 kts 153°
2026-04-12 02:50 35.32805 -97.57495 5400 ft 245 kts 125°
2026-04-12 02:50 35.32449 -97.55354 6215 ft 276 kts 91°
2026-04-12 02:50 35.33163 -97.53074 7029 ft 299 kts 62°
2026-04-12 02:51 35.34446 -97.51003 7961 ft 311 kts 53°
2026-04-12 02:51 35.35833 -97.48907 8887 ft 322 kts 54°
2026-04-12 02:51 35.37142 -97.46647 9832 ft 330 kts 59°
2026-04-12 02:51 35.38407 -97.44265 10685 ft 334 kts 59°
2026-04-12 02:52 35.39676 -97.41998 11506 ft 314 kts 57°
2026-04-12 02:52 35.40944 -97.39813 12346 ft 317 kts 57°
2026-04-12 02:52 35.42210 -97.37578 13207 ft 321 kts 57°
2026-04-12 02:52 35.43480 -97.35302 14071 ft 325 kts 57°
2026-04-12 02:53 35.44772 -97.33007 14881 ft 328 kts 57°
2026-04-12 02:53 35.46078 -97.30700 15721 ft 330 kts 57°
2026-04-12 02:53 35.48663 -97.26106 17879 ft 318 kts 57°
2026-04-12 02:54 35.49902 -97.23903 19044 ft 307 kts 57°
2026-04-12 02:54 35.51092 -97.21785 20164 ft 295 kts 57°
2026-04-12 02:54 35.52235 -97.19750 21321 ft 282 kts 57°
2026-04-12 02:54 35.53297 -97.17858 22483 ft 266 kts 57°
2026-04-12 02:55 35.54310 -97.16052 23689 ft 245 kts 57°
2026-04-12 02:55 35.55234 -97.14403 24587 ft 228 kts 57°
2026-04-12 02:55 35.56112 -97.12832 25213 ft 221 kts 57°
2026-04-12 02:55 35.56977 -97.11285 25728 ft 219 kts 57°
2026-04-12 02:56 35.57879 -97.09671 25876 ft 242 kts 57°
2026-04-12 02:56 35.58888 -97.07870 26005 ft 268 kts 56°
2026-04-12 02:56 35.59939 -97.05997 26711 ft 261 kts 56°
2026-04-12 02:56 35.60965 -97.04163 27347 ft 261 kts 56°
2026-04-12 02:57 35.61993 -97.02323 27938 ft 262 kts 56°
2026-04-12 02:57 35.63022 -97.00471 28506 ft 263 kts 56°
2026-04-12 02:57 35.64057 -96.98603 29074 ft 264 kts 56°
2026-04-12 02:57 35.65090 -96.96727 29633 ft 266 kts 56°
2026-04-12 02:58 35.66112 -96.94864 30174 ft 267 kts 56°
2026-04-12 02:58 35.67148 -96.92968 30641 ft 267 kts 56°
2026-04-12 02:58 35.68187 -96.91059 31105 ft 268 kts 56°
2026-04-12 02:58 35.69224 -96.89147 31561 ft 269 kts 56°
2026-04-12 02:59 35.70262 -96.87228 32015 ft 270 kts 56°
2026-04-12 02:59 35.71303 -96.85294 32464 ft 271 kts 56°
2026-04-12 02:59 35.72340 -96.83355 32904 ft 272 kts 55°
2026-04-12 02:59 35.73360 -96.81393 33341 ft 273 kts 58°
2026-04-12 03:00 35.74169 -96.79194 33438 ft 291 kts 71°
2026-04-12 03:00 35.74672 -96.77627 33508 ft 303 kts 66°
2026-04-12 03:00 35.76083 -96.74471 33683 ft 327 kts 56°
2026-04-12 03:00 35.76899 -96.72890 33775 ft 334 kts 57°
2026-04-12 03:01 35.78108 -96.70362 33950 ft 349 kts 60°
2026-04-12 03:01 35.79250 -96.67758 34636 ft 344 kts 60°
2026-04-12 03:01 35.80406 -96.65196 35237 ft 341 kts 59°
2026-04-12 03:01 35.81585 -96.62678 35828 ft 338 kts 59°
2026-04-12 03:02 35.82747 -96.60169 36424 ft 335 kts 59°
2026-04-12 03:02 35.83876 -96.57687 37098 ft 326 kts 59°
2026-04-12 03:02 35.84954 -96.55323 38008 ft 308 kts 59°
2026-04-12 03:02 35.86005 -96.53038 38524 ft 304 kts 59°
2026-04-12 03:03 35.87043 -96.50776 38892 ft 306 kts 59°
2026-04-12 03:03 35.88101 -96.48465 38914 ft 320 kts 59°
2026-04-12 03:03 35.89201 -96.46051 39254 ft 316 kts 58°
2026-04-12 03:03 35.90260 -96.43740 39854 ft 305 kts 58°
2026-04-12 03:04 35.91325 -96.41417 39855 ft 321 kts 58°
2026-04-12 03:04 35.92444 -96.38963 39886 ft 335 kts 59°
2026-04-12 03:04 35.93615 -96.36390 39889 ft 351 kts 59°
2026-04-12 03:04 35.94844 -96.33693 39886 ft 368 kts 59°
2026-04-12 03:05 35.96123 -96.30880 39894 ft 384 kts 59°
2026-04-12 03:05 35.97456 -96.27944 39897 ft 400 kts 59°
2026-04-12 03:05 35.98848 -96.24884 39880 ft 415 kts 59°
2026-04-12 03:05 36.00266 -96.21764 39891 ft 428 kts 59°
2026-04-12 03:06 36.01741 -96.18510 39893 ft 441 kts 59°
2026-04-12 03:06 36.03257 -96.15160 39898 ft 453 kts 59°
2026-04-12 03:06 36.04816 -96.11716 39901 ft 465 kts 59°
2026-04-12 03:06 36.06416 -96.08179 39890 ft 477 kts 59°
2026-04-12 03:07 36.08052 -96.04555 39890 ft 489 kts 59°
2026-04-12 03:07 36.09726 -96.00844 39904 ft 500 kts 59°
2026-04-12 03:07 36.11441 -95.97038 39896 ft 511 kts 59°
2026-04-12 03:07 36.13188 -95.93159 39900 ft 521 kts 59°
2026-04-12 03:08 36.16778 -95.85170 39896 ft 541 kts 59°
2026-04-12 03:08 36.19663 -95.76422 39888 ft 560 kts 76°
2026-04-12 03:09 36.20594 -95.66756 39877 ft 573 kts 90°
2026-04-12 03:09 36.20379 -95.56762 40035 ft 583 kts 93°
2026-04-12 03:10 36.20396 -95.51852 40569 ft 576 kts 89°
2026-04-12 03:10 36.20655 -95.46885 40913 ft 572 kts 85°
2026-04-12 03:10 36.21014 -95.42124 42476 ft 539 kts 87°
2026-04-12 03:10 36.21180 -95.37627 44122 ft 508 kts 91°
2026-04-12 03:11 36.21208 -95.33304 44871 ft 498 kts 92°
2026-04-12 03:11 36.21301 -95.28971 44867 ft 506 kts 89°
2026-04-12 03:11 36.21703 -95.20152 44876 ft 519 kts 90°
2026-04-12 03:12 36.21913 -95.11115 44907 ft 531 kts 90°
2026-04-12 03:12 36.22250 -95.01860 44920 ft 543 kts 90°
2026-04-12 03:13 36.22504 -94.92437 45086 ft 550 kts 90°
2026-04-12 03:13 36.22805 -94.82869 45099 ft 561 kts 89°
2026-04-12 03:14 36.23072 -94.73172 45097 ft 571 kts 90°
2026-04-12 03:14 36.23353 -94.63257 45130 ft 580 kts 89°
2026-04-12 03:15 36.23623 -94.53191 45137 ft 588 kts 89°
2026-04-12 03:15 36.23890 -94.43018 45139 ft 593 kts 89°
2026-04-12 03:16 36.24153 -94.32800 45136 ft 593 kts 90°
2026-04-12 03:16 36.24398 -94.22584 45136 ft 592 kts 90°
2026-04-12 03:17 36.24426 -94.12459 45122 ft 589 kts 97°
2026-04-12 03:17 36.22887 -94.02542 45135 ft 584 kts 105°
2026-04-12 03:18 36.21266 -93.92695 45138 ft 583 kts 103°
2026-04-12 03:18 36.19406 -93.82984 45091 ft 575 kts 111°
2026-04-12 03:19 36.18471 -93.78200 45568 ft 563 kts 102°
2026-04-12 03:19 36.17785 -93.73463 45781 ft 556 kts 104°
2026-04-12 03:19 36.16922 -93.68802 45675 ft 555 kts 106°
2026-04-12 03:19 36.16082 -93.64125 45549 ft 556 kts 103°
2026-04-12 03:20 36.15398 -93.59411 45422 ft 557 kts 102°
2026-04-12 03:20 36.14728 -93.54747 45299 ft 556 kts 103°
2026-04-12 03:20 36.13894 -93.50077 45183 ft 556 kts 106°
2026-04-12 03:20 36.12984 -93.45423 45129 ft 554 kts 105°
2026-04-12 03:21 36.11431 -93.36088 45132 ft 551 kts 104°
2026-04-12 03:21 36.10633 -93.31427 44688 ft 559 kts 105°
2026-04-12 03:21 36.09748 -93.26689 44098 ft 569 kts 105°
2026-04-12 03:22 36.08879 -93.21877 43536 ft 580 kts 104°
2026-04-12 03:22 36.08060 -93.17009 42989 ft 574 kts 103°
2026-04-12 03:22 36.07252 -93.12272 42451 ft 565 kts 104°
2026-04-12 03:22 36.06401 -93.07580 41905 ft 556 kts 104°
2026-04-12 03:23 36.05553 -93.02938 41369 ft 549 kts 104°
2026-04-12 03:23 36.04748 -92.98361 40854 ft 541 kts 103°
2026-04-12 03:23 36.03962 -92.93843 40343 ft 534 kts 103°
2026-04-12 03:23 36.03161 -92.89378 39846 ft 528 kts 103°
2026-04-12 03:24 36.02360 -92.84981 39360 ft 522 kts 103°
2026-04-12 03:24 36.01579 -92.80632 38886 ft 515 kts 103°
2026-04-12 03:24 36.00808 -92.76327 38351 ft 509 kts 103°
2026-04-12 03:24 36.00046 -92.72081 37809 ft 504 kts 103°
2026-04-12 03:25 35.99293 -92.67881 37277 ft 498 kts 103°
2026-04-12 03:25 35.98542 -92.63726 36770 ft 493 kts 103°
2026-04-12 03:25 35.97791 -92.59615 36266 ft 488 kts 103°
2026-04-12 03:25 35.97049 -92.55539 35774 ft 487 kts 103°
2026-04-12 03:26 35.96299 -92.51405 35299 ft 499 kts 103°
2026-04-12 03:26 35.95529 -92.47176 34832 ft 510 kts 103°
2026-04-12 03:26 35.94742 -92.42902 34381 ft 520 kts 103°
2026-04-12 03:26 35.93934 -92.38505 33886 ft 535 kts 103°
2026-04-12 03:27 35.93101 -92.33944 33387 ft 554 kts 103°
2026-04-12 03:27 35.92235 -92.29226 32899 ft 569 kts 103°
2026-04-12 03:27 35.91348 -92.24452 32421 ft 571 kts 103°
2026-04-12 03:27 35.90469 -92.19709 31935 ft 563 kts 103°
2026-04-12 03:28 35.89606 -92.15031 31449 ft 556 kts 103°
2026-04-12 03:28 35.88747 -92.10372 30973 ft 561 kts 103°
2026-04-12 03:28 35.87866 -92.05649 30504 ft 567 kts 103°
2026-04-12 03:28 35.86984 -92.00960 30141 ft 569 kts 103°
2026-04-12 03:29 35.85224 -91.91547 30153 ft 558 kts 103°
2026-04-12 03:29 35.83482 -91.82310 30165 ft 549 kts 103°
2026-04-12 03:30 35.81658 -91.73239 30134 ft 541 kts 109°
2026-04-12 03:30 35.80181 -91.68995 29899 ft 540 kts 115°
2026-04-12 03:30 35.78587 -91.64781 29498 ft 545 kts 116°
2026-04-12 03:31 35.76986 -91.60538 29105 ft 548 kts 115°
2026-04-12 03:31 35.75424 -91.56237 28765 ft 549 kts 115°
2026-04-12 03:31 35.73864 -91.51933 28037 ft 549 kts 115°
2026-04-12 03:31 35.72292 -91.47719 27335 ft 534 kts 116°
2026-04-12 03:32 35.70754 -91.43630 26631 ft 519 kts 116°
2026-04-12 03:32 35.69278 -91.39637 25954 ft 506 kts 115°
2026-04-12 03:32 35.67843 -91.35731 25301 ft 494 kts 116°
2026-04-12 03:32 35.66431 -91.31930 24660 ft 483 kts 116°
2026-04-12 03:33 35.65040 -91.28216 24031 ft 473 kts 116°
2026-04-12 03:33 35.63677 -91.24576 23367 ft 464 kts 116°
2026-04-12 03:33 35.62360 -91.21036 23182 ft 444 kts 116°
2026-04-12 03:33 35.61107 -91.17671 23173 ft 422 kts 116°
2026-04-12 03:34 35.59918 -91.14502 23169 ft 404 kts 117°
2026-04-12 03:34 35.58769 -91.11444 23173 ft 387 kts 116°
2026-04-12 03:34 35.57663 -91.08492 23176 ft 372 kts 116°
2026-04-12 03:34 35.56599 -91.05653 23171 ft 360 kts 116°
2026-04-12 03:35 35.55567 -91.02908 23169 ft 348 kts 117°
2026-04-12 03:35 35.54565 -91.00241 23173 ft 338 kts 117°
2026-04-12 03:35 35.53592 -90.97656 23171 ft 329 kts 117°
2026-04-12 03:35 35.52642 -90.95133 23170 ft 321 kts 117°
2026-04-12 03:36 35.51717 -90.92677 23166 ft 313 kts 117°
2026-04-12 03:36 35.50812 -90.90278 23160 ft 307 kts 117°
2026-04-12 03:36 35.49927 -90.87934 23160 ft 300 kts 117°
2026-04-12 03:36 35.49057 -90.85626 23165 ft 294 kts 117°
2026-04-12 03:37 35.48204 -90.83365 23167 ft 289 kts 117°
2026-04-12 03:37 35.47363 -90.81138 23169 ft 285 kts 117°
2026-04-12 03:37 35.46532 -90.78941 23169 ft 282 kts 117°
2026-04-12 03:37 35.45710 -90.76767 23170 ft 279 kts 117°
2026-04-12 03:38 35.44896 -90.74616 23160 ft 277 kts 117°
2026-04-12 03:38 35.44084 -90.72469 22881 ft 281 kts 117°
2026-04-12 03:38 35.43231 -90.70225 21859 ft 305 kts 117°
2026-04-12 03:38 35.42400 -90.67749 20832 ft 324 kts 107°
2026-04-12 03:39 35.41966 -90.64968 19859 ft 338 kts 102°
2026-04-12 03:39 35.41236 -90.62189 18836 ft 348 kts 113°
2026-04-12 03:39 35.40543 -90.59298 17703 ft 359 kts 104°
2026-04-12 03:39 35.40077 -90.56259 16543 ft 366 kts 101°
2026-04-12 03:40 35.39682 -90.53136 15338 ft 373 kts 99°
2026-04-12 03:40 35.39315 -90.49972 14176 ft 376 kts 99°
2026-04-12 03:40 35.38964 -90.46787 12902 ft 377 kts 98°
2026-04-12 03:40 35.38619 -90.43601 11647 ft 376 kts 98°
2026-04-12 03:41 35.38277 -90.40432 10441 ft 374 kts 98°
2026-04-12 03:41 35.37942 -90.37289 9175 ft 367 kts 99°
2026-04-12 03:41 35.37667 -90.34519 8318 ft 288 kts 98°
2026-04-12 03:41 35.37482 -90.32377 8264 ft 223 kts 98°
2026-04-12 03:42 35.37351 -90.30657 8150 ft 185 kts 98°
2026-04-12 03:42 35.37250 -90.29182 7929 ft 171 kts 98°
2026-04-12 03:42 35.37152 -90.27694 7359 ft 178 kts 98°
2026-04-12 03:42 35.37053 -90.26166 6840 ft 180 kts 98°
2026-04-12 03:43 35.36962 -90.24632 6313 ft 180 kts 98°
2026-04-12 03:43 35.36839 -90.23124 5775 ft 173 kts 111°
2026-04-12 03:43 35.36116 -90.22014 5156 ft 166 kts 147°
2026-04-12 03:43 35.35223 -90.21287 5149 ft 149 kts 148°
2026-04-12 03:44 35.34413 -90.20610 5028 ft 145 kts 148°
2026-04-12 03:44 35.33424 -90.19799 5007 ft 192 kts 148°
2026-04-12 03:44 35.32243 -90.18844 5002 ft 209 kts 148°
2026-04-12 03:44 35.31019 -90.17858 4986 ft 212 kts 148°
2026-04-12 03:45 35.29777 -90.16858 4978 ft 215 kts 148°
2026-04-12 03:45 35.28517 -90.15843 4966 ft 218 kts 148°
2026-04-12 03:45 35.27246 -90.14822 4980 ft 221 kts 148°
2026-04-12 03:45 35.25959 -90.13795 4997 ft 227 kts 148°
2026-04-12 03:46 35.24682 -90.12628 4972 ft 233 kts 139°
2026-04-12 03:46 35.23570 -90.11161 4992 ft 236 kts 134°
2026-04-12 03:46 35.22518 -90.09650 5052 ft 228 kts 131°
2026-04-12 03:46 35.21550 -90.08172 4961 ft 221 kts 132°
2026-04-12 03:47 35.20569 -90.06693 4760 ft 226 kts 130°
2026-04-12 03:47 35.19612 -90.05186 4672 ft 221 kts 132°
2026-04-12 03:47 35.19000 -90.04205 4499 ft 218 kts 128°
2026-04-12 03:47 35.18258 -90.02564 3989 ft 223 kts 122°
2026-04-12 03:48 35.17477 -90.00915 3471 ft 227 kts 124°
2026-04-12 03:48 35.16533 -89.99523 2934 ft 189 kts 151°
2026-04-12 03:48 35.15346 -89.99085 2563 ft 176 kts 172°
2026-04-12 03:48 35.14131 -89.98945 2234 ft 170 kts 177°
2026-04-12 03:49 35.13022 -89.98925 1924 ft 152 kts 179°
2026-04-12 03:49 35.12033 -89.98922 1704 ft 135 kts 180°
2026-04-12 03:49 35.11107 -89.98923 1479 ft 130 kts 179°
2026-04-12 03:49 35.10216 -89.98891 1261 ft 127 kts 177°
2026-04-12 03:50 35.09337 -89.98855 1071 ft 124 kts 178°
2026-04-12 03:50 35.08492 -89.98839 887 ft 122 kts 178°
2026-04-12 03:50 35.07640 -89.98816 759 ft 122 kts 178°
2026-04-12 03:50 35.06797 -89.98794 616 ft 120 kts 177°
2026-04-12 03:51 35.05990 -89.98777 489 ft 117 kts 178°
2026-04-12 03:51 35.05182 -89.98751 360 ft 115 kts 178°
2026-04-12 03:51 35.04437 -89.98725 300 ft 97 kts 178°
2026-04-12 03:51 35.03908 -89.98717 301 ft 56 kts 187°
2026-04-12 03:52 35.03681 -89.98699 309 ft 15 kts 142°
2026-04-12 03:52 35.03660 -89.98605 309 ft 0 kts 87°
2026-04-12 03:53 35.03660 -89.98602 309 ft 1 kts 87°
2026-04-12 03:53 35.03661 -89.98594 309 ft 1 kts 87°
2026-04-12 03:53 35.03661 -89.98579 309 ft 2 kts 87°
2026-04-12 03:53 35.03662 -89.98565 308 ft 0 kts 86°
2026-04-12 03:54 35.03707 -89.98572 307 ft 14 kts 346°
2026-04-12 03:54 35.03896 -89.98587 299 ft 40 kts 360°
2026-04-12 03:54 35.04234 -89.98598 293 ft 57 kts 359°
2026-04-12 03:55 35.04605 -89.98604 296 ft 46 kts 359°
2026-04-12 03:55 35.04919 -89.98608 295 ft 41 kts
2026-04-12 03:55 35.05153 -89.98515 291 ft 33 kts
2026-04-12 03:55 35.05368 -89.98511 284 ft 31 kts 360°
2026-04-12 03:56 35.05576 -89.98506 282 ft 28 kts
2026-04-12 03:56 35.05697 -89.98422 284 ft 21 kts 79°
2026-04-12 03:56 35.05687 -89.98205 293 ft 28 kts 91°
2026-04-12 03:56 35.05664 -89.98017 302 ft 10 kts 184°
2026-04-12 03:57 35.05579 -89.98111 297 ft 23 kts 228°
2026-04-12 03:57 35.05503 -89.98117 296 ft 12 kts 110°
2026-04-12 03:57 35.05477 -89.98023 306 ft 9 kts 137°
2026-04-12 03:57 35.05442 -89.97974 311 ft 7 kts 138°
2026-04-12 03:58 35.05432 -89.97953 312 ft 0 kts 89°